CW5763 Weather Reports


time (UTC)temp
C
wind
direction
speed
KPH
gust
KPH
rain 1hr
cm
rain 24hr
cm
rain mn
cm
humidity
%
barometer
mb
20260505112005 16 15 3.2 8.0 0.00 0.00 0.00 65 1011.8
20260505111006 16 13 4.8 9.7 0.00 0.00 0.00 65 1011.9
20260505102006 16 24 4.8 11.3 0.00 0.00 0.00 68 1012.1
20260505101006 16 13 3.2 11.3 0.00 0.00 0.00 72 1012.1
20260505100006 15 16 3.2 11.3 0.00 0.00 0.00 73 1012.0
20260505095006 15 12 4.8 8.0 0.00 0.00 0.00 72 1012.2
20260505094006 15 15 3.2 12.9 0.00 0.00 0.00 73 1012.3
20260505093006 14 15 3.2 14.5 0.00 0.00 0.00 74 1012.3
20260505091007 14 1 3.2 9.7 0.00 0.00 0.00 76 1012.3
20260505090006 14 18 4.8 12.9 0.00 0.00 0.00 78 1012.4
20260505085006 13 350 1.6 9.7 0.00 0.00 0.00 82 1012.5
20260505084006 13 335 1.6 11.3 0.00 0.00 0.00 80 1012.6
20260505083006 13 0 3.2 12.9 0.00 0.00 0.00 81 1012.5
20260505082005 12 22 1.6 4.8 0.00 0.00 0.00 84 1012.6
20260505081006 12 26 1.6 4.8 0.00 0.00 0.00 87 1012.4
20260505074006 12 26 1.6 4.8 0.00 0.00 0.00 88 1012.5
20260505073006 12 26 1.6 4.8 0.00 0.00 0.00 88 1012.5
20260505071006 11 28 0.0 3.2 0.00 0.00 0.00 90 1012.6
20260505070007 11 28 0.0 3.2 0.00 0.00 0.00 90 1012.5
20260505065006 11 24 0.0 4.8 0.00 0.00 0.00 90 1012.5
20260505064006 11 24 1.6 4.8 0.00 0.00 0.00 90 1012.6
20260505063005 11 26 3.2 4.8 0.00 0.00 0.00 90 1012.7
20260505062006 11 36 3.2 4.8 0.00 0.00 0.00 90 1012.6
20260505061004 11 54 1.6 4.8 0.00 0.00 0.00 90 1012.6
20260505055006 11 136 1.6 3.2 0.00 0.00 0.00 91 1012.5
20260505054006 11 136 1.6 3.2 0.00 0.00 0.00 91 1012.5
20260505053005 11 136 0.0 3.2 0.00 0.00 0.00 91 1012.4
20260505052005 11 136 0.0 3.2 0.00 0.00 0.00 91 1012.5
20260505051006 11 136 0.0 3.2 0.00 0.00 0.00 92 1012.4
20260505041005 12 136 0.0 1.6 0.00 0.00 0.00 93 1012.5
20260505035005 12 136 0.0 1.6 0.00 0.00 0.00 93 1012.5
20260505034005 12 136 0.0 1.6 0.00 0.00 0.00 93 1012.6
20260505033005 12 136 0.0 0.0 0.00 0.00 0.00 93 1012.8
20260505032005 12 136 0.0 0.0 0.00 0.00 0.00 93 1012.8
20260505031005 12 136 0.0 0.0 0.00 0.00 0.00 93 1012.9
20260505030005 12 136 0.0 0.0 0.00 0.00 0.00 93 1012.9
20260505025005 12 136 0.0 0.0 0.00 0.00 0.00 93 1013.0
20260505023005 12 136 0.0 1.6 0.00 0.00 0.00 93 1012.9
20260505022006 12 136 0.0 0.0 0.00 0.00 0.00 93 1013.0
20260505021005 12 136 0.0 0.0 0.00 0.00 0.00 93 1012.9
20260505020005 12 136 0.0 0.0 0.00 0.00 0.00 93 1013.0
20260505015007 12 136 0.0 3.2 0.00 0.00 0.00 93 1013.1
20260505014005 12 136 1.6 3.2 0.00 0.00 0.00 93 1013.2
20260505012005 12 136 0.0 0.0 0.00 0.00 0.00 92 1013.5
20260505010005 12 136 0.0 1.6 0.00 0.00 0.00 92 1013.5
20260505005005 12 136 0.0 3.2 0.00 0.00 0.00 92 1013.6
20260505004006 12 136 1.6 11.3 0.00 0.00 0.00 92 1013.6
20260505003005 12 135 4.8 11.3 0.00 0.00 0.00 92 1013.7
20260505002005 12 135 3.2 11.3 0.00 0.00 0.00 92 1013.6
20260505001007 12 137 4.8 11.3 0.00 0.00 0.00 91 1013.7
20260504235007 12 136 1.6 4.8 0.00 0.00 0.00 91 1013.7
20260504234005 12 136 3.2 8.0 0.00 0.00 0.00 91 1013.9
20260504233005 12 136 8.0 11.3 0.00 0.00 0.00 90 1013.8
20260504232007 12 136 0.0 0.0 0.00 0.00 0.00 89 1013.7
20260504230005 12 136 0.0 0.0 0.00 0.00 0.00 89 1013.8
20260504225005 12 136 0.0 3.2 0.00 0.00 0.00 89 1013.8
20260504224005 12 136 1.6 3.2 0.00 0.00 0.00 88 1013.9
20260504223006 12 136 0.0 1.6 0.00 0.00 0.00 88 1013.9
20260504222005 12 136 0.0 3.2 0.00 0.00 0.00 88 1013.9
20260504214005 13 136 0.0 4.8 0.00 0.00 0.00 86 1014.0
20260504213005 13 136 1.6 8.0 0.00 0.00 0.00 87 1014.1
20260504212005 13 135 4.8 8.0 0.00 0.00 0.00 87 1014.1
20260504211004 13 135 0.0 1.6 0.00 0.00 0.00 85 1014.0
20260504210005 13 135 0.0 1.6 0.00 0.00 0.00 86 1014.1
20260504205005 13 135 0.0 1.6 0.00 0.00 0.00 86 1014.1
20260504204005 13 135 0.0 0.0 0.00 0.00 0.00 86 1014.1
20260504201005 13 135 0.0 0.0 0.00 0.00 0.00 84 1013.9
20260504195004 14 135 0.0 0.0 0.00 0.00 0.00 82 1013.8
20260504193006 14 135 0.0 3.2 0.00 0.00 0.00 80 1013.7
20260504192005 15 135 0.0 0.0 0.00 0.00 0.00 80 1013.6
20260504190005 15 135 0.0 1.6 0.00 0.00 0.00 79 1013.4
20260504185005 15 135 0.0 3.2 0.00 0.00 0.00 78 1013.4
20260504184004 15 135 1.6 4.8 0.00 0.00 0.00 78 1013.4
20260504183004 15 135 3.2 8.0 0.00 0.00 0.00 77 1013.4
20260504182004 16 135 1.6 8.0 0.00 0.00 0.00 75 1013.3
20260504181007 16 132 6.4 11.3 0.00 0.00 0.00 75 1013.3
20260504180005 16 133 4.8 12.9 0.00 0.00 0.00 74 1013.3
20260504175004 16 134 4.8 11.3 0.00 0.00 0.00 74 1013.3
20260504174004 16 130 4.8 8.0 0.00 0.00 0.00 74 1013.3
20260504173004 16 140 3.2 11.3 0.00 0.00 0.00 74 1013.4
20260504172004 16 140 4.8 11.3 0.00 0.00 0.00 75 1013.4
20260504171004 17 138 4.8 12.9 0.00 0.00 0.00 72 1013.3
20260504151004 19 134 14.5 22.5 0.00 0.00 0.00 63 1013.2
20260504141004 20 127 8.0 19.3 0.00 0.00 0.00 66 1013.5